Погода в Хлюте

Россия / Республика Дагестан     41°29′44″N   47°31′58″E
темп.,
°C
ветер,
м/с
пор.,
м/с
влажн.,
%
обл.,
%
осадки,
мм/ч
давл.,
гПа
погр.,
м
25 июня, сб
сб2500:00+9з23861 1.9 101341
03:00+8з33815 1.9 101338
06:00+12з23741 0.0 1012112
09:00+18юз14444 0.1 10101780
12:00+20ю36394 0.2 10082501
15:00+19ю254191 0.6 10092069
18:00+17ююв235964 0.3 1009331
21:00+12юз2269100 0.6 101219
26 июня, вс
вс2600:00+11з3382100 1.4 101358
03:00+10з118243 1.9 101217
06:00+12з337698 0.2 101190
09:00+16ю2357100 0.9 1010751
12:00+16в236385 0.8 1009752
15:00+18в355573 2.8 10071352
18:00+15вюв2276100 2.8 1008124
21:00+10з3387100 5.8 101342
27 июня, пн
пн2700:00+10зсз22820 0.8 101221
03:00+10зсз22770 0.8 101219
06:00+13ссз11690 0.0 101264
09:00+18в22540 0.0 1010704
12:00+19в43550 0.3 10101234
15:00+18в436416 1.4 10101076
18:00+16в328037 1.0 1012501
21:00+12юз218763 1.5 101414
28 июня, вт
вт2800:00+11з33823 0.9 101328
03:00+11з33760 0.9 101225
06:00+14з23700 0.0 101185
09:00+20всв02420 0.0 10091503
12:00+20вюв34502 0.4 10081571
15:00+19в33552 1.4 10091338
18:00+15вюв227511 1.1 1012352
21:00+11всв019112 1.8 101411
29 июня, ср
ср2900:00+9св119529 0.3 101513
03:00+10всв119475 1.7 1015140
06:00+11в118957 0.0 1015260
09:00+13в228482 0.3 1014580
12:00+13в338588 0.8 1015582
15:00+14в337360 1.5 1014797
18:00+13в327429 0.3 1015505
21:00+7в119413 0.4 101811